date,time,water_lv
2023-10-01,00:00:00,-
2023-10-01,00:10:00,214.66
2023-10-01,00:20:00,214.65
2023-10-01,00:30:00,214.64
2023-10-01,00:40:00,214.62
2023-10-01,00:50:00,214.62
2023-10-01,01:00:00,214.62
2023-10-01,01:10:00,214.6
2023-10-01,01:20:00,214.6
2023-10-01,01:30:00,214.59
2023-10-01,01:40:00,214.58
2023-10-01,01:50:00,214.57
2023-10-01,02:00:00,214.56
2023-10-01,02:10:00,214.55
2023-10-01,02:20:00,214.54
2023-10-01,02:30:00,214.54
2023-10-01,02:40:00,214.52
2023-10-01,02:50:00,214.52
2023-10-01,03:00:00,214.5
2023-10-01,03:10:00,214.49
2023-10-01,03:20:00,214.49
2023-10-01,03:30:00,214.48
2023-10-01,03:40:00,214.47
2023-10-01,03:50:00,214.46
2023-10-01,04:00:00,214.45
2023-10-01,04:10:00,214.44
2023-10-01,04:20:00,214.43
2023-10-01,04:30:00,214.41
2023-10-01,04:40:00,214.41
2023-10-01,04:50:00,214.4
2023-10-01,05:00:00,214.38
2023-10-01,05:10:00,214.37
2023-10-01,05:20:00,214.36
2023-10-01,05:30:00,214.35
2023-10-01,05:40:00,214.34
2023-10-01,05:50:00,214.33
2023-10-01,06:00:00,214.32
2023-10-01,06:10:00,214.3
2023-10-01,06:20:00,214.3
2023-10-01,06:30:00,214.29
2023-10-01,06:40:00,214.28
2023-10-01,06:50:00,214.25
2023-10-01,07:00:00,214.24
2023-10-01,07:10:00,214.23
2023-10-01,07:20:00,214.22
2023-10-01,07:30:00,214.2
2023-10-01,07:40:00,214.19
2023-10-01,07:50:00,214.18
2023-10-01,08:00:00,214.16
2023-10-01,08:10:00,214.14
2023-10-01,08:20:00,214.13
2023-10-01,08:30:00,214.1
2023-10-01,08:40:00,214.1
2023-10-01,08:50:00,214.07
2023-10-01,09:00:00,214.06
2023-10-01,09:10:00,214.04
2023-10-01,09:20:00,214.03
2023-10-01,09:30:00,214.01
2023-10-01,09:40:00,214
2023-10-01,09:50:00,213.97
2023-10-01,10:00:00,213.96
2023-10-01,10:10:00,213.94
2023-10-01,10:20:00,213.91
2023-10-01,10:30:00,213.9
2023-10-01,10:40:00,213.88
2023-10-01,10:50:00,213.86
2023-10-01,11:00:00,213.83
2023-10-01,11:10:00,213.82
2023-10-01,11:20:00,213.8
2023-10-01,11:30:00,213.78
2023-10-01,11:40:00,213.75
2023-10-01,11:50:00,213.73
2023-10-01,12:00:00,213.71
2023-10-01,12:10:00,213.69
2023-10-01,12:20:00,213.68
2023-10-01,12:30:00,213.65
2023-10-01,12:40:00,213.63
2023-10-01,12:50:00,213.61
2023-10-01,13:00:00,-
2023-10-01,13:10:00,213.57
2023-10-01,13:20:00,213.55
2023-10-01,13:30:00,213.53
2023-10-01,13:40:00,213.5
2023-10-01,13:50:00,213.49
2023-10-01,14:00:00,-
2023-10-01,14:10:00,213.45
2023-10-01,14:20:00,213.42
2023-10-01,14:30:00,213.4
2023-10-01,14:40:00,213.38
2023-10-01,14:50:00,213.36
2023-10-01,15:00:00,213.33
2023-10-01,15:10:00,213.32
2023-10-01,15:20:00,213.31
2023-10-01,15:30:00,213.29
2023-10-01,15:40:00,213.26
2023-10-01,15:50:00,213.25
2023-10-01,16:00:00,213.23
2023-10-01,16:10:00,213.21
2023-10-01,16:20:00,213.2
2023-10-01,16:30:00,213.18
2023-10-01,16:40:00,213.16
2023-10-01,16:50:00,213.14
2023-10-01,17:00:00,213.12
2023-10-01,17:10:00,213.1
2023-10-01,17:20:00,213.09
2023-10-01,17:30:00,213.07
2023-10-01,17:40:00,213.05
2023-10-01,17:50:00,213.03
2023-10-01,18:00:00,213.01
2023-10-01,18:10:00,213
2023-10-01,18:20:00,212.98
2023-10-01,18:30:00,212.96
2023-10-01,18:40:00,212.95
2023-10-01,18:50:00,212.93
2023-10-01,19:00:00,212.91
2023-10-01,19:10:00,212.9
2023-10-01,19:20:00,212.88
2023-10-01,19:30:00,212.87
2023-10-01,19:40:00,212.85
2023-10-01,19:50:00,212.84
2023-10-01,20:00:00,212.82
2023-10-01,20:10:00,212.81
2023-10-01,20:20:00,212.8
2023-10-01,20:30:00,212.78
2023-10-01,20:40:00,212.77
2023-10-01,20:50:00,212.76
2023-10-01,21:00:00,212.73
2023-10-01,21:10:00,212.72
2023-10-01,21:20:00,212.71
2023-10-01,21:30:00,212.7
2023-10-01,21:40:00,212.68
2023-10-01,21:50:00,212.67
2023-10-01,22:00:00,212.66
2023-10-01,22:10:00,212.65
2023-10-01,22:20:00,212.65
2023-10-01,22:30:00,212.62
2023-10-01,22:40:00,212.61
2023-10-01,22:50:00,212.6
2023-10-01,23:00:00,212.59
2023-10-01,23:10:00,212.57
2023-10-01,23:20:00,212.56
2023-10-01,23:30:00,212.55
2023-10-01,23:40:00,212.54
2023-10-01,23:50:00,212.53
2023-10-02,00:00:00,212.52
2023-10-02,00:10:00,212.5
2023-10-02,00:20:00,212.5
2023-10-02,00:30:00,212.49
2023-10-02,00:40:00,212.48
2023-10-02,00:50:00,212.47
2023-10-02,01:00:00,212.46
2023-10-02,01:10:00,212.44
2023-10-02,01:20:00,212.44
2023-10-02,01:30:00,212.43
2023-10-02,01:40:00,212.42
2023-10-02,01:50:00,212.4
2023-10-02,02:00:00,212.41
2023-10-02,02:10:00,212.39
2023-10-02,02:20:00,212.38
2023-10-02,02:30:00,212.38
2023-10-02,02:40:00,212.36
2023-10-02,02:50:00,212.36
2023-10-02,03:00:00,212.35
2023-10-02,03:10:00,212.34
2023-10-02,03:20:00,212.33
2023-10-02,03:30:00,212.33
2023-10-02,03:40:00,212.32
2023-10-02,03:50:00,212.3
2023-10-02,04:00:00,212.3
2023-10-02,04:10:00,212.29
2023-10-02,04:20:00,212.29
2023-10-02,04:30:00,212.27
2023-10-02,04:40:00,212.26
2023-10-02,04:50:00,212.26
2023-10-02,05:00:00,212.25
2023-10-02,05:10:00,212.24
2023-10-02,05:20:00,212.24
2023-10-02,05:30:00,212.23
2023-10-02,05:40:00,212.23
2023-10-02,05:50:00,212.22
2023-10-02,06:00:00,212.21
2023-10-02,06:10:00,212.19
2023-10-02,06:20:00,212.19
2023-10-02,06:30:00,212.19
2023-10-02,06:40:00,212.18
2023-10-02,06:50:00,212.17
2023-10-02,07:00:00,212.15
2023-10-02,07:10:00,212.16
2023-10-02,07:20:00,212.15
2023-10-02,07:30:00,212.15
2023-10-02,07:40:00,212.14
2023-10-02,07:50:00,212.13
2023-10-02,08:00:00,212.12
2023-10-02,08:10:00,212.12
2023-10-02,08:20:00,212.11
2023-10-02,08:30:00,212.1
2023-10-02,08:40:00,212.09
2023-10-02,08:50:00,212.09
2023-10-02,09:00:00,212.08
2023-10-02,09:10:00,212.08
2023-10-02,09:20:00,212.07
2023-10-02,09:30:00,212.06
2023-10-02,09:40:00,212.05
2023-10-02,09:50:00,212.05
2023-10-02,10:00:00,-
2023-10-02,10:10:00,-
2023-10-02,10:20:00,-
2023-10-02,10:30:00,-
2023-10-02,10:40:00,-
2023-10-02,10:50:00,-
2023-10-02,11:00:00,212
2023-10-02,11:10:00,212
2023-10-02,11:20:00,211.99
2023-10-02,11:30:00,211.99
2023-10-02,11:40:00,211.98
2023-10-02,11:50:00,211.97
2023-10-02,12:00:00,211.96
2023-10-02,12:10:00,211.96
2023-10-02,12:20:00,211.95
2023-10-02,12:30:00,211.95
2023-10-02,12:40:00,211.94
2023-10-02,12:50:00,211.94
2023-10-02,13:00:00,211.93
2023-10-02,13:10:00,211.93
2023-10-02,13:20:00,211.92
2023-10-02,13:30:00,211.91
2023-10-02,13:40:00,211.91
2023-10-02,13:50:00,211.9
2023-10-02,14:00:00,211.9
2023-10-02,14:10:00,211.89
2023-10-02,14:20:00,211.89
2023-10-02,14:30:00,211.88
2023-10-02,14:40:00,211.87
2023-10-02,14:50:00,211.87
2023-10-02,15:00:00,211.86
2023-10-02,15:10:00,211.86
2023-10-02,15:20:00,-
2023-10-02,15:30:00,211.84
2023-10-02,15:40:00,211.84
2023-10-02,15:50:00,211.84
2023-10-02,16:00:00,211.82
2023-10-02,16:10:00,211.83
2023-10-02,16:20:00,211.82
2023-10-02,16:30:00,211.82
2023-10-02,16:40:00,211.81
2023-10-02,16:50:00,211.81
2023-10-02,17:00:00,211.8
2023-10-02,17:10:00,211.8
2023-10-02,17:20:00,211.79
2023-10-02,17:30:00,211.79
2023-10-02,17:40:00,211.78
2023-10-02,17:50:00,211.78
2023-10-02,18:00:00,-
2023-10-02,18:10:00,-
2023-10-02,18:20:00,-
2023-10-02,18:30:00,-
2023-10-02,18:40:00,-
2023-10-02,18:50:00,-
2023-10-02,19:00:00,211.75
2023-10-02,19:10:00,211.75
2023-10-02,19:20:00,211.75
2023-10-02,19:30:00,211.75
2023-10-02,19:40:00,211.74
2023-10-02,19:50:00,211.74
2023-10-02,20:00:00,211.74
2023-10-02,20:10:00,211.73
2023-10-02,20:20:00,211.73
2023-10-02,20:30:00,211.73
2023-10-02,20:40:00,211.73
2023-10-02,20:50:00,211.73
2023-10-02,21:00:00,211.71
2023-10-02,21:10:00,211.72
2023-10-02,21:20:00,211.72
2023-10-02,21:30:00,211.71
2023-10-02,21:40:00,211.7
2023-10-02,21:50:00,211.71
2023-10-02,22:00:00,211.7
2023-10-02,22:10:00,211.7
2023-10-02,22:20:00,211.7
2023-10-02,22:30:00,211.69
2023-10-02,22:40:00,211.68
2023-10-02,22:50:00,211.69
2023-10-02,23:00:00,211.68
2023-10-02,23:10:00,211.68
2023-10-02,23:20:00,211.68
2023-10-02,23:30:00,211.67
2023-10-02,23:40:00,211.67
2023-10-02,23:50:00,211.66
2023-10-03,00:00:00,211.66
2023-10-03,00:10:00,211.66
2023-10-03,00:20:00,211.66
2023-10-03,00:30:00,211.65
2023-10-03,00:40:00,211.65
2023-10-03,00:50:00,211.65
2023-10-03,01:00:00,211.65
2023-10-03,01:10:00,211.64
2023-10-03,01:20:00,211.64
2023-10-03,01:30:00,211.64
2023-10-03,01:40:00,211.63
2023-10-03,01:50:00,211.64
2023-10-03,02:00:00,211.63
2023-10-03,02:10:00,211.63
2023-10-03,02:20:00,211.62
2023-10-03,02:30:00,211.62
2023-10-03,02:40:00,211.62
2023-10-03,02:50:00,211.62
2023-10-03,03:00:00,211.62
2023-10-03,03:10:00,211.61
2023-10-03,03:20:00,211.61
2023-10-03,03:30:00,211.61
2023-10-03,03:40:00,211.61
2023-10-03,03:50:00,211.6
2023-10-03,04:00:00,211.61
2023-10-03,04:10:00,211.6
2023-10-03,04:20:00,211.6
2023-10-03,04:30:00,211.6
2023-10-03,04:40:00,211.59
2023-10-03,04:50:00,211.59
2023-10-03,05:00:00,211.58
2023-10-03,05:10:00,211.59
2023-10-03,05:20:00,211.58
2023-10-03,05:30:00,211.58
2023-10-03,05:40:00,211.58
2023-10-03,05:50:00,211.58
2023-10-03,06:00:00,211.58
2023-10-03,06:10:00,211.57
2023-10-03,06:20:00,211.57
2023-10-03,06:30:00,211.57
2023-10-03,06:40:00,211.57
2023-10-03,06:50:00,211.57
2023-10-03,07:00:00,211.56
2023-10-03,07:10:00,211.56
2023-10-03,07:20:00,211.56
2023-10-03,07:30:00,211.56
2023-10-03,07:40:00,211.56
2023-10-03,07:50:00,211.55
2023-10-03,08:00:00,211.56
2023-10-03,08:10:00,211.55
2023-10-03,08:20:00,211.55
2023-10-03,08:30:00,211.54
2023-10-03,08:40:00,211.54
2023-10-03,08:50:00,211.54
2023-10-03,09:00:00,211.54
2023-10-03,09:10:00,211.54
2023-10-03,09:20:00,211.54
2023-10-03,09:30:00,211.53
2023-10-03,09:40:00,211.52
2023-10-03,09:50:00,211.53
2023-10-03,10:00:00,211.53
2023-10-03,10:10:00,211.53
2023-10-03,10:20:00,211.53
2023-10-03,10:30:00,211.52
2023-10-03,10:40:00,211.52
2023-10-03,10:50:00,211.51
2023-10-03,11:00:00,211.51
2023-10-03,11:10:00,211.51
2023-10-03,11:20:00,211.51
2023-10-03,11:30:00,211.5
2023-10-03,11:40:00,211.51
2023-10-03,11:50:00,211.5
2023-10-03,12:00:00,211.5
2023-10-03,12:10:00,211.51
2023-10-03,12:20:00,211.5
2023-10-03,12:30:00,211.5
2023-10-03,12:40:00,211.5
2023-10-03,12:50:00,211.5
2023-10-03,13:00:00,211.5
2023-10-03,13:10:00,211.5
2023-10-03,13:20:00,211.49
2023-10-03,13:30:00,211.49
2023-10-03,13:40:00,211.49
2023-10-03,13:50:00,211.49
2023-10-03,14:00:00,211.48
2023-10-03,14:10:00,211.48
2023-10-03,14:20:00,211.48
2023-10-03,14:30:00,211.48
2023-10-03,14:40:00,211.47
2023-10-03,14:50:00,211.47
2023-10-03,15:00:00,211.47
2023-10-03,15:10:00,211.47
2023-10-03,15:20:00,211.46
2023-10-03,15:30:00,211.46
2023-10-03,15:40:00,211.46
2023-10-03,15:50:00,211.45
2023-10-03,16:00:00,211.45
2023-10-03,16:10:00,211.45
2023-10-03,16:20:00,211.45
2023-10-03,16:30:00,211.44
2023-10-03,16:40:00,211.44
2023-10-03,16:50:00,211.43
2023-10-03,17:00:00,-
2023-10-03,17:10:00,211.43
2023-10-03,17:20:00,211.42
2023-10-03,17:30:00,211.42
2023-10-03,17:40:00,211.42
2023-10-03,17:50:00,211.42
2023-10-03,18:00:00,211.41
2023-10-03,18:10:00,211.41
2023-10-03,18:20:00,211.41
2023-10-03,18:30:00,211.4
2023-10-03,18:40:00,211.4
2023-10-03,18:50:00,211.39
2023-10-03,19:00:00,211.39
2023-10-03,19:10:00,211.39
2023-10-03,19:20:00,211.38
2023-10-03,19:30:00,211.38
2023-10-03,19:40:00,211.38
2023-10-03,19:50:00,211.37
2023-10-03,20:00:00,211.37
2023-10-03,20:10:00,211.37
2023-10-03,20:20:00,211.36
2023-10-03,20:30:00,211.36
2023-10-03,20:40:00,211.35
2023-10-03,20:50:00,211.35
2023-10-03,21:00:00,211.35
2023-10-03,21:10:00,211.34
2023-10-03,21:20:00,211.34
2023-10-03,21:30:00,211.33
2023-10-03,21:40:00,211.33
2023-10-03,21:50:00,211.33
2023-10-03,22:00:00,211.33
2023-10-03,22:10:00,211.32
2023-10-03,22:20:00,211.32
2023-10-03,22:30:00,211.31
2023-10-03,22:40:00,211.31
2023-10-03,22:50:00,211.3
2023-10-03,23:00:00,211.3
2023-10-03,23:10:00,211.3
2023-10-03,23:20:00,211.3
2023-10-03,23:30:00,211.29
2023-10-03,23:40:00,211.29
2023-10-03,23:50:00,211.29
2023-10-04,00:00:00,211.29
2023-10-04,00:10:00,211.28
2023-10-04,00:20:00,211.28
2023-10-04,00:30:00,211.27
2023-10-04,00:40:00,211.27
2023-10-04,00:50:00,211.26
2023-10-04,01:00:00,211.27
2023-10-04,01:10:00,211.26
2023-10-04,01:20:00,211.26
2023-10-04,01:30:00,211.26
2023-10-04,01:40:00,211.26
2023-10-04,01:50:00,211.26
2023-10-04,02:00:00,211.25
2023-10-04,02:10:00,211.25
2023-10-04,02:20:00,211.25
2023-10-04,02:30:00,211.25
2023-10-04,02:40:00,211.24
2023-10-04,02:50:00,211.24
2023-10-04,03:00:00,211.24
2023-10-04,03:10:00,211.23
2023-10-04,03:20:00,211.24
2023-10-04,03:30:00,211.23
2023-10-04,03:40:00,211.23
2023-10-04,03:50:00,211.23
2023-10-04,04:00:00,211.23
2023-10-04,04:10:00,211.22
2023-10-04,04:20:00,211.22
2023-10-04,04:30:00,211.22
2023-10-04,04:40:00,211.21
2023-10-04,04:50:00,211.21
2023-10-04,05:00:00,211.2
2023-10-04,05:10:00,211.21
2023-10-04,05:20:00,211.2
2023-10-04,05:30:00,211.2
2023-10-04,05:40:00,211.2
2023-10-04,05:50:00,211.2
2023-10-04,06:00:00,211.19
2023-10-04,06:10:00,211.19
2023-10-04,06:20:00,211.19
2023-10-04,06:30:00,211.18
2023-10-04,06:40:00,211.18
2023-10-04,06:50:00,211.18
2023-10-04,07:00:00,211.18
2023-10-04,07:10:00,211.17
2023-10-04,07:20:00,211.17
2023-10-04,07:30:00,211.17
2023-10-04,07:40:00,211.17
2023-10-04,07:50:00,211.17
2023-10-04,08:00:00,211.17
2023-10-04,08:10:00,211.16
2023-10-04,08:20:00,211.16
2023-10-04,08:30:00,211.16
2023-10-04,08:40:00,211.15
2023-10-04,08:50:00,211.15
2023-10-04,09:00:00,211.15
2023-10-04,09:10:00,211.15
2023-10-04,09:20:00,211.14
2023-10-04,09:30:00,211.14
2023-10-04,09:40:00,211.14
2023-10-04,09:50:00,211.13
2023-10-04,10:00:00,211.13
2023-10-04,10:10:00,211.13
2023-10-04,10:20:00,211.13
2023-10-04,10:30:00,211.13
2023-10-04,10:40:00,211.13
2023-10-04,10:50:00,211.12
2023-10-04,11:00:00,211.12
2023-10-04,11:10:00,211.12
2023-10-04,11:20:00,211.12
2023-10-04,11:30:00,211.11
2023-10-04,11:40:00,211.11
2023-10-04,11:50:00,211.11
2023-10-04,12:00:00,211.1
2023-10-04,12:10:00,211.1
2023-10-04,12:20:00,211.1
2023-10-04,12:30:00,211.1
2023-10-04,12:40:00,211.1
2023-10-04,12:50:00,211.09
2023-10-04,13:00:00,211.09
2023-10-04,13:10:00,211.09
2023-10-04,13:20:00,211.08
2023-10-04,13:30:00,211.09
2023-10-04,13:40:00,211.08
2023-10-04,13:50:00,211.08
2023-10-04,14:00:00,211.07
2023-10-04,14:10:00,211.08
2023-10-04,14:20:00,211.07
2023-10-04,14:30:00,211.07
2023-10-04,14:40:00,211.06
2023-10-04,14:50:00,211.07
2023-10-04,15:00:00,211.06
2023-10-04,15:10:00,211.06
2023-10-04,15:20:00,211.06
2023-10-04,15:30:00,211.06
2023-10-04,15:40:00,211.05
2023-10-04,15:50:00,211.05
2023-10-04,16:00:00,211.05
2023-10-04,16:10:00,211.04
2023-10-04,16:20:00,211.04
2023-10-04,16:30:00,211.05
2023-10-04,16:40:00,211.04
2023-10-04,16:50:00,211.04
2023-10-04,17:00:00,211.04
2023-10-04,17:10:00,211.03
2023-10-04,17:20:00,211.03
2023-10-04,17:30:00,211.02
2023-10-04,17:40:00,211.03
2023-10-04,17:50:00,211.03
2023-10-04,18:00:00,211.03
2023-10-04,18:10:00,211.02
2023-10-04,18:20:00,211.02
2023-10-04,18:30:00,211.02
2023-10-04,18:40:00,211.02
2023-10-04,18:50:00,211.01
2023-10-04,19:00:00,211.02
2023-10-04,19:10:00,211.02
2023-10-04,19:20:00,211.01
2023-10-04,19:30:00,211.01
2023-10-04,19:40:00,211.01
2023-10-04,19:50:00,211.01
2023-10-04,20:00:00,211
2023-10-04,20:10:00,210.99
2023-10-04,20:20:00,210.99
2023-10-04,20:30:00,210.99
2023-10-04,20:40:00,210.98
2023-10-04,20:50:00,210.99
2023-10-04,21:00:00,210.98
2023-10-04,21:10:00,210.98
2023-10-04,21:20:00,210.97
2023-10-04,21:30:00,210.97
2023-10-04,21:40:00,210.97
2023-10-04,21:50:00,210.96
2023-10-04,22:00:00,210.95
2023-10-04,22:10:00,210.95
2023-10-04,22:20:00,210.96
2023-10-04,22:30:00,210.95
2023-10-04,22:40:00,210.95
2023-10-04,22:50:00,210.95
2023-10-04,23:00:00,210.94
2023-10-04,23:10:00,210.94
2023-10-04,23:20:00,210.93
2023-10-04,23:30:00,210.93
2023-10-04,23:40:00,210.93
2023-10-04,23:50:00,210.93
2023-10-05,00:00:00,210.93
2023-10-05,00:10:00,210.92
2023-10-05,00:20:00,210.92
2023-10-05,00:30:00,210.92
2023-10-05,00:40:00,210.92
2023-10-05,00:50:00,210.93
2023-10-05,01:00:00,210.92
2023-10-05,01:10:00,210.92
2023-10-05,01:20:00,210.92
2023-10-05,01:30:00,210.93
2023-10-05,01:40:00,210.93
2023-10-05,01:50:00,210.93
2023-10-05,02:00:00,210.93
2023-10-05,02:10:00,210.94
2023-10-05,02:20:00,210.93
2023-10-05,02:30:00,210.94
2023-10-05,02:40:00,210.94
2023-10-05,02:50:00,210.94
2023-10-05,03:00:00,210.93
2023-10-05,03:10:00,210.94
2023-10-05,03:20:00,210.94
2023-10-05,03:30:00,210.94
2023-10-05,03:40:00,210.94
2023-10-05,03:50:00,210.94
2023-10-05,04:00:00,210.94
2023-10-05,04:10:00,210.95
2023-10-05,04:20:00,210.94
2023-10-05,04:30:00,210.93
2023-10-05,04:40:00,210.93
2023-10-05,04:50:00,210.93
2023-10-05,05:00:00,210.93
2023-10-05,05:10:00,210.94
2023-10-05,05:20:00,210.92
2023-10-05,05:30:00,210.93
2023-10-05,05:40:00,210.92
2023-10-05,05:50:00,210.93
2023-10-05,06:00:00,210.92
2023-10-05,06:10:00,210.93
2023-10-05,06:20:00,210.91
2023-10-05,06:30:00,210.92
2023-10-05,06:40:00,210.92
2023-10-05,06:50:00,210.91
2023-10-05,07:00:00,210.91
2023-10-05,07:10:00,210.91
2023-10-05,07:20:00,210.91
2023-10-05,07:30:00,210.91
2023-10-05,07:40:00,210.9
2023-10-05,07:50:00,210.9
2023-10-05,08:00:00,210.89
2023-10-05,08:10:00,210.89
2023-10-05,08:20:00,210.89
2023-10-05,08:30:00,210.89
2023-10-05,08:40:00,210.89
2023-10-05,08:50:00,210.88
2023-10-05,09:00:00,210.88
2023-10-05,09:10:00,210.88
2023-10-05,09:20:00,210.88
2023-10-05,09:30:00,210.88
2023-10-05,09:40:00,210.87
2023-10-05,09:50:00,210.87
2023-10-05,10:00:00,210.87
2023-10-05,10:10:00,210.87
2023-10-05,10:20:00,210.85
2023-10-05,10:30:00,210.87
2023-10-05,10:40:00,210.86
2023-10-05,10:50:00,210.86
2023-10-05,11:00:00,210.86
2023-10-05,11:10:00,210.86
2023-10-05,11:20:00,210.86
2023-10-05,11:30:00,210.85
2023-10-05,11:40:00,210.85
2023-10-05,11:50:00,210.84
2023-10-05,12:00:00,210.85
2023-10-05,12:10:00,210.85
2023-10-05,12:20:00,210.84
2023-10-05,12:30:00,210.85
2023-10-05,12:40:00,210.85
2023-10-05,12:50:00,210.84
2023-10-05,13:00:00,210.84
2023-10-05,13:10:00,210.84
2023-10-05,13:20:00,210.84
2023-10-05,13:30:00,210.84
2023-10-05,13:40:00,210.83
2023-10-05,13:50:00,210.84
2023-10-05,14:00:00,210.83
2023-10-05,14:10:00,210.83
2023-10-05,14:20:00,210.83
2023-10-05,14:30:00,210.83
2023-10-05,14:40:00,210.83
2023-10-05,14:50:00,210.83
2023-10-05,15:00:00,210.82
2023-10-05,15:10:00,210.82
2023-10-05,15:20:00,210.82
2023-10-05,15:30:00,210.81
2023-10-05,15:40:00,210.82
2023-10-05,15:50:00,210.82
2023-10-05,16:00:00,210.82
2023-10-05,16:10:00,210.8
2023-10-05,16:20:00,210.81
2023-10-05,16:30:00,210.81
2023-10-05,16:40:00,210.81
2023-10-05,16:50:00,210.8
2023-10-05,17:00:00,210.81
2023-10-05,17:10:00,210.8
2023-10-05,17:20:00,210.81
2023-10-05,17:30:00,210.8
2023-10-05,17:40:00,210.81
2023-10-05,17:50:00,210.81
2023-10-05,18:00:00,210.8
2023-10-05,18:10:00,210.8
2023-10-05,18:20:00,210.81
2023-10-05,18:30:00,210.8
2023-10-05,18:40:00,210.81
2023-10-05,18:50:00,210.81
2023-10-05,19:00:00,210.8
2023-10-05,19:10:00,210.81
2023-10-05,19:20:00,210.81
2023-10-05,19:30:00,210.8
2023-10-05,19:40:00,210.81
2023-10-05,19:50:00,210.81
2023-10-05,20:00:00,210.81
2023-10-05,20:10:00,210.82
2023-10-05,20:20:00,210.81
2023-10-05,20:30:00,210.8
2023-10-05,20:40:00,210.82
2023-10-05,20:50:00,210.82
2023-10-05,21:00:00,210.82
2023-10-05,21:10:00,210.81
2023-10-05,21:20:00,210.83
2023-10-05,21:30:00,210.81
2023-10-05,21:40:00,210.82
2023-10-05,21:50:00,210.83
2023-10-05,22:00:00,210.82
2023-10-05,22:10:00,210.83
2023-10-05,22:20:00,210.83
2023-10-05,22:30:00,210.82
2023-10-05,22:40:00,210.82
2023-10-05,22:50:00,210.82
2023-10-05,23:00:00,210.82
2023-10-05,23:10:00,210.82
2023-10-05,23:20:00,210.82
2023-10-05,23:30:00,210.82
2023-10-05,23:40:00,210.82
2023-10-05,23:50:00,210.83
2023-10-06,00:00:00,210.83
2023-10-06,00:10:00,210.83
2023-10-06,00:20:00,210.81
2023-10-06,00:30:00,210.83
2023-10-06,00:40:00,210.82
2023-10-06,00:50:00,210.83
2023-10-06,01:00:00,210.82
2023-10-06,01:10:00,210.83
2023-10-06,01:20:00,210.82
2023-10-06,01:30:00,210.82
2023-10-06,01:40:00,210.83
2023-10-06,01:50:00,210.83
2023-10-06,02:00:00,210.82
2023-10-06,02:10:00,210.83
2023-10-06,02:20:00,210.82
2023-10-06,02:30:00,210.82
2023-10-06,02:40:00,210.82
2023-10-06,02:50:00,210.82
2023-10-06,03:00:00,210.82
2023-10-06,03:10:00,210.82
2023-10-06,03:20:00,210.82
2023-10-06,03:30:00,210.82
2023-10-06,03:40:00,210.82
2023-10-06,03:50:00,210.81
2023-10-06,04:00:00,210.82
2023-10-06,04:10:00,210.82
2023-10-06,04:20:00,210.82
2023-10-06,04:30:00,210.81
2023-10-06,04:40:00,210.82
2023-10-06,04:50:00,210.82
2023-10-06,05:00:00,210.8
2023-10-06,05:10:00,210.82
2023-10-06,05:20:00,210.81
2023-10-06,05:30:00,210.82
2023-10-06,05:40:00,210.81
2023-10-06,05:50:00,210.81
2023-10-06,06:00:00,210.82
2023-10-06,06:10:00,210.82
2023-10-06,06:20:00,210.82
2023-10-06,06:30:00,210.82
2023-10-06,06:40:00,210.82
2023-10-06,06:50:00,210.81
2023-10-06,07:00:00,210.82
2023-10-06,07:10:00,210.81
2023-10-06,07:20:00,210.82
2023-10-06,07:30:00,210.82
2023-10-06,07:40:00,210.82
2023-10-06,07:50:00,210.82
2023-10-06,08:00:00,210.82
2023-10-06,08:10:00,210.81
2023-10-06,08:20:00,210.81
2023-10-06,08:30:00,210.8
2023-10-06,08:40:00,210.8
2023-10-06,08:50:00,210.8
2023-10-06,09:00:00,210.8
2023-10-06,09:10:00,210.79
2023-10-06,09:20:00,210.79
2023-10-06,09:30:00,210.78
2023-10-06,09:40:00,210.77
2023-10-06,09:50:00,210.77
2023-10-06,10:00:00,210.78
2023-10-06,10:10:00,210.77
2023-10-06,10:20:00,210.78
2023-10-06,10:30:00,210.78
2023-10-06,10:40:00,210.78
2023-10-06,10:50:00,210.77
2023-10-06,11:00:00,210.78
2023-10-06,11:10:00,210.78
2023-10-06,11:20:00,210.78
2023-10-06,11:30:00,210.78
2023-10-06,11:40:00,210.78
2023-10-06,11:50:00,210.78
2023-10-06,12:00:00,-
2023-10-06,12:10:00,-
2023-10-06,12:20:00,-
2023-10-06,12:30:00,210.78
2023-10-06,12:40:00,210.79
2023-10-06,12:50:00,210.78
2023-10-06,13:00:00,210.79
2023-10-06,13:10:00,210.8
2023-10-06,13:20:00,210.79
2023-10-06,13:30:00,210.79
2023-10-06,13:40:00,210.79
2023-10-06,13:50:00,210.79
2023-10-06,14:00:00,210.8
2023-10-06,14:10:00,210.81
2023-10-06,14:20:00,210.8
2023-10-06,14:30:00,210.8
2023-10-06,14:40:00,210.8
2023-10-06,14:50:00,210.8
2023-10-06,15:00:00,210.8
2023-10-06,15:10:00,210.81
2023-10-06,15:20:00,210.8
2023-10-06,15:30:00,210.8
2023-10-06,15:40:00,210.8
2023-10-06,15:50:00,210.81
2023-10-06,16:00:00,210.8
2023-10-06,16:10:00,210.81
2023-10-06,16:20:00,210.81
2023-10-06,16:30:00,210.81
2023-10-06,16:40:00,210.81
2023-10-06,16:50:00,210.81
2023-10-06,17:00:00,210.82
2023-10-06,17:10:00,210.81
2023-10-06,17:20:00,210.82
2023-10-06,17:30:00,210.82
2023-10-06,17:40:00,210.83
2023-10-06,17:50:00,210.82
2023-10-06,18:00:00,210.84
2023-10-06,18:10:00,210.84
2023-10-06,18:20:00,210.84
2023-10-06,18:30:00,210.84
2023-10-06,18:40:00,210.84
2023-10-06,18:50:00,210.85
2023-10-06,19:00:00,210.84
2023-10-06,19:10:00,210.85
2023-10-06,19:20:00,210.86
2023-10-06,19:30:00,210.85
2023-10-06,19:40:00,210.85
2023-10-06,19:50:00,210.86
2023-10-06,20:00:00,210.83
2023-10-06,20:10:00,210.85
2023-10-06,20:20:00,210.85
2023-10-06,20:30:00,210.85
2023-10-06,20:40:00,210.84
2023-10-06,20:50:00,210.85
2023-10-06,21:00:00,210.84
2023-10-06,21:10:00,210.85
2023-10-06,21:20:00,210.83
2023-10-06,21:30:00,210.85
2023-10-06,21:40:00,210.83
2023-10-06,21:50:00,210.84
2023-10-06,22:00:00,210.83
2023-10-06,22:10:00,210.83
2023-10-06,22:20:00,210.84
2023-10-06,22:30:00,210.84
2023-10-06,22:40:00,210.83
2023-10-06,22:50:00,210.83
2023-10-06,23:00:00,210.83
2023-10-06,23:10:00,210.82
2023-10-06,23:20:00,210.83
2023-10-06,23:30:00,210.83
2023-10-06,23:40:00,210.83
2023-10-06,23:50:00,210.82
2023-10-07,00:00:00,210.82
2023-10-07,00:10:00,210.82
2023-10-07,00:20:00,210.81
2023-10-07,00:30:00,210.83
2023-10-07,00:40:00,210.82
2023-10-07,00:50:00,210.82
2023-10-07,01:00:00,210.82
2023-10-07,01:10:00,210.81
2023-10-07,01:20:00,210.82
2023-10-07,01:30:00,210.82
2023-10-07,01:40:00,210.82
2023-10-07,01:50:00,210.81
2023-10-07,02:00:00,210.82
2023-10-07,02:10:00,210.81
2023-10-07,02:20:00,210.81
2023-10-07,02:30:00,210.82
2023-10-07,02:40:00,210.82
2023-10-07,02:50:00,210.82
2023-10-07,03:00:00,210.82
2023-10-07,03:10:00,210.82
2023-10-07,03:20:00,210.81
2023-10-07,03:30:00,210.82
2023-10-07,03:40:00,210.81
2023-10-07,03:50:00,210.81
2023-10-07,04:00:00,210.81
2023-10-07,04:10:00,210.82
2023-10-07,04:20:00,210.81
2023-10-07,04:30:00,210.82
2023-10-07,04:40:00,210.82
2023-10-07,04:50:00,210.82
2023-10-07,05:00:00,210.82